EW1914 Weather Reports


time (UTC)temp
F
wind
direction
speed
knots
gust
knots
rain 1hr
in
rain 24hr
in
rain mn
in
humidity
%
barometer
mb
20260507194958 63 0.0 0.0 0.00 0.00 0.00 59 1018.8
20260507193958 63 0.0 0.0 0.00 0.00 0.00 57 1018.9
20260507193000 62 0.0 0.0 0.00 0.00 0.00 60 1019.0
20260507191957 62 0.0 0.0 0.00 0.00 0.00 62 1019.2
20260507190958 62 0.0 0.0 0.00 0.00 0.00 61 1019.3
20260507190000 61 0.0 0.0 0.00 0.00 0.00 64 1019.4
20260507184958 60 0.0 0.0 0.00 0.00 0.00 66 1019.5
20260507183958 60 0.0 0.0 0.00 0.00 0.00 68 1019.6
20260507183000 60 0.0 0.0 0.00 0.00 0.00 64 1019.7
20260507181957 59 0.0 0.0 0.00 0.00 0.00 68 1019.8
20260507180957 59 0.0 0.0 0.00 0.00 0.00 67 1019.9
20260507175959 59 0.0 0.0 0.00 0.00 0.00 68 1019.9
20260507174958 58 0.0 0.0 0.00 0.00 0.00 69 1020.0
20260507173958 58 0.0 0.0 0.00 0.00 0.00 70 1020.1
20260507171958 57 0.0 0.0 0.00 0.00 0.00 71 1020.3
20260507170959 57 0.0 0.0 0.00 0.00 0.00 71 1020.2
20260507164958 56 0.0 0.0 0.00 0.00 0.00 73 1020.3
20260507163958 55 0.0 0.0 0.00 0.00 0.00 73 1020.5
20260507163000 55 0.0 0.0 0.00 0.00 0.00 74 1020.4
20260507160958 54 0.0 0.0 0.00 0.00 0.00 75 1020.4
20260507160001 54 0.0 0.0 0.00 0.00 0.00 76 1020.4
20260507154959 54 0.0 0.0 0.00 0.00 0.00 76 1020.5
20260507153958 54 0.0 0.0 0.00 0.00 0.00 76 1020.5
20260507152959 54 0.0 0.0 0.00 0.00 0.00 76 1020.5
20260507151957 54 0.0 0.0 0.00 0.00 0.00 76 1020.5
20260507150958 54 0.0 0.0 0.00 0.00 0.00 77 1020.5
20260507145959 53 0.0 0.0 0.00 0.00 0.00 77 1020.5
20260507144959 53 0.0 0.0 0.00 0.00 0.00 77 1020.4
20260507143958 53 0.0 0.0 0.00 0.00 0.00 78 1020.4
20260507143000 53 0.0 0.0 0.00 0.00 0.00 78 1020.3
20260507141958 53 0.0 0.0 0.00 0.00 0.00 79 1020.3
20260507140002 53 0.0 0.0 0.00 0.00 0.00 79 1020.2
20260507134959 53 0.0 0.0 0.00 0.00 0.00 79 1020.1
20260507133959 53 0.0 0.0 0.00 0.00 0.00 79 1020.0
20260507125959 53 0.0 0.0 0.00 0.00 0.00 79 1019.9
20260507124957 53 0.0 0.0 0.00 0.00 0.00 78 1020.0
20260507122959 54 0.0 0.0 0.00 0.00 0.00 78 1020.0
20260507121958 54 0.0 0.0 0.00 0.00 0.00 78 1020.0
20260507120958 54 0.0 0.0 0.00 0.00 0.00 78 1020.1
20260507115959 54 0.0 0.0 0.00 0.00 0.00 78 1020.1
20260507114957 54 0.0 0.0 0.00 0.00 0.00 78 1020.2
20260507113957 54 0.0 0.0 0.00 0.00 0.00 79 1020.2
20260507112959 54 0.0 0.0 0.00 0.00 0.00 79 1020.2
20260507110957 54 0.0 0.0 0.00 0.00 0.00 78 1020.2
20260507105958 54 0.0 0.0 0.00 0.00 0.00 78 1020.2
20260507104958 55 0.0 0.0 0.00 0.00 0.00 78 1020.3
20260507102959 55 0.0 0.0 0.00 0.00 0.00 78 1020.4
20260507101958 55 0.0 0.0 0.00 0.00 0.00 78 1020.4
20260507100958 55 0.0 0.0 0.00 0.00 0.00 78 1020.5
20260507095958 55 0.0 0.0 0.00 0.00 0.00 79 1020.5
20260507094957 55 0.0 0.0 0.00 0.00 0.00 78 1020.6
20260507092958 55 0.0 0.0 0.00 0.00 0.00 77 1020.7
20260507090957 55 0.0 0.0 0.00 0.00 0.00 77 1020.9
20260507090001 55 0.0 0.0 0.00 0.00 0.00 77 1020.9
20260507083958 55 0.0 0.0 0.00 0.00 0.00 77 1020.9
20260507081958 55 0.0 0.0 0.00 0.00 0.00 77 1020.9
20260507080957 55 0.0 0.0 0.00 0.00 0.00 77 1020.9
20260507080001 56 0.0 0.0 0.00 0.00 0.00 78 1020.8
20260507074000 56 0.0 0.0 0.00 0.00 0.00 79 1020.9
20260507073012 56 0.0 0.0 0.00 0.00 0.00 79 1020.8
20260507071959 56 0.0 0.0 0.00 0.00 0.00 79 1020.7
20260507070958 56 0.0 0.0 0.00 0.00 0.00 79 1020.7
20260507070002 56 0.0 0.0 0.00 0.00 0.00 79 1020.7
20260507064000 56 0.0 0.0 0.00 0.00 0.00 79 1020.7
20260507063000 56 0.0 0.0 0.00 0.00 0.00 78 1020.7
20260507061959 56 0.0 0.0 0.00 0.00 0.00 78 1020.8
20260507060001 56 0.0 0.0 0.00 0.00 0.00 79 1020.8
20260507055000 57 0.0 0.0 0.00 0.00 0.00 79 1020.9
20260507053959 57 0.0 0.0 0.00 0.00 0.00 80 1020.8
20260507053003 57 0.0 0.0 0.00 0.00 0.00 79 1020.8
20260507051000 57 0.0 0.0 0.00 0.00 0.00 78 1020.8
20260507050001 58 0.0 0.0 0.00 0.00 0.00 77 1020.8
20260507043959 58 0.0 0.0 0.00 0.00 0.00 77 1020.7
20260507041959 59 0.0 0.0 0.00 0.00 0.00 76 1020.6
20260507040959 59 0.0 0.0 0.00 0.00 0.00 76 1020.5
20260507040005 60 0.0 0.0 0.00 0.00 0.00 76 1020.4
20260507035000 60 0.0 0.0 0.00 0.00 0.00 76 1020.3
20260507034000 60 0.0 0.0 0.00 0.00 0.00 75 1020.2
20260507033000 60 0.0 0.0 0.00 0.00 0.00 75 1020.0
20260507031959 61 0.0 0.0 0.00 0.00 0.00 75 1019.9
20260507030959 61 0.0 0.0 0.00 0.00 0.00 75 1019.7
20260507030003 61 0.0 0.0 0.00 0.00 0.00 75 1019.6
20260507024959 62 0.0 0.0 0.00 0.00 0.00 74 1019.5
20260507023958 62 0.0 0.0 0.00 0.00 0.00 74 1019.4
20260507023000 62 0.0 0.0 0.00 0.00 0.00 74 1019.4
20260507021959 63 0.0 0.0 0.00 0.00 0.00 73 1019.3
20260507020959 63 0.0 0.0 0.00 0.00 0.00 73 1019.4
20260507020002 63 0.0 0.0 0.00 0.00 0.00 73 1019.4
20260507014959 64 0.0 0.0 0.00 0.00 0.00 72 1019.5
20260507013959 64 0.0 0.0 0.00 0.00 0.00 72 1019.5
20260507013000 64 0.0 0.0 0.00 0.00 0.00 71 1019.6
20260507012000 65 0.0 0.0 0.00 0.00 0.00 71 1019.6
20260507010001 66 0.0 0.0 0.00 0.00 0.00 70 1019.4
20260507005000 66 0.0 0.0 0.00 0.00 0.00 68 1019.5
20260507003959 66 0.0 0.0 0.00 0.00 0.00 68 1019.4
20260507003002 67 0.0 0.0 0.00 0.00 0.00 67 1019.4
20260507001959 68 0.0 0.0 0.00 0.00 0.00 68 1019.2
20260507000959 68 0.0 0.0 0.00 0.00 0.00 67 1019.2
20260507000000 69 0.0 0.0 0.00 0.00 0.00 69 1019.1
20260506234007 69 0.0 0.0 0.00 0.00 0.00 70 1019.0
20260506233002 69 0.0 0.0 0.00 0.00 0.00 70 1019.0
20260506231959 69 0.0 0.0 0.00 0.00 0.00 69 1019.1
20260506230959 69 0.0 0.0 0.00 0.00 0.00 69 1019.0
20260506230000 69 0.0 0.0 0.00 0.00 0.00 69 1019.1
20260506223958 68 0.0 0.0 0.00 0.00 0.00 70 1019.4
20260506222959 68 0.0 0.0 0.00 0.00 0.00 68 1019.5
20260506221959 68 0.0 0.0 0.00 0.00 0.00 69 1019.6
20260506220959 68 0.0 0.0 0.00 0.00 0.00 70 1019.6
20260506220005 67 0.0 0.0 0.00 0.00 0.00 71 1019.7
20260506215000 67 0.0 0.0 0.00 0.00 0.00 69 1019.7
20260506213959 67 0.0 0.0 0.00 0.00 0.00 71 1019.5
20260506211959 66 0.0 0.0 0.00 0.00 0.00 74 1019.8
20260506211000 65 0.0 0.0 0.00 0.00 0.00 74 1020.0
20260506204959 65 0.0 0.0 0.00 0.00 0.00 77 1020.0
20260506203959 64 0.0 0.0 0.00 0.00 0.00 75 1020.1
20260506203000 64 0.0 0.0 0.00 0.00 0.00 79 1020.0
20260506201958 63 0.0 0.0 0.00 0.00 0.00 79 1020.0
20260506200959 63 0.0 0.0 0.00 0.00 0.00 78 1020.1